CO-58
1 28895U 05043F 09253.19575857 .00000188 00000-0 48811-4 0 3919
2 28895 098.0456 141.3769 0019019 082.0679 278.2692 14.59793790206131
FALCON
1 30776U 07006E 09252.51287866 .00000228 00000-0 19535-4 0 06656
2 30776 035.4352 307.7728 0001908 303.9452 056.1083 15.03297769137794
MAST
1 31126U 07012K 09252.70771229 .00000083 00000-0 29312-4 0 6816
2 31126 097.9803 303.6067 0095180 018.1387 342.3174 14.53515591127314
CAPE1
1 31130U 07012P 09253.58790488 .00000182 00000-0 52670-4 0 6910
2 31130 097.9809 302.4404 0103381 021.5204 339.0295 14.52085147127085
COMPASS
1 32787U 08021E 09253.66778606 .00000075 00000-0 16272-4 0 4598
2 32787 097.9351 316.7364 0017042 113.7974 246.5030 14.81650849 74107
AAUSAT2
1 32788U 08021F 09253.83110579 .00000306 00000-0 45509-4 0 4555
2 32788 097.9351 316.9711 0016706 112.5628 247.7316 14.81777365 74131
DO-64
1 32789U 08021G 09252.83998116 .00000266 00000-0 40453-4 0 4699
2 32789 097.9393 316.2070 0016894 115.3819 244.9132 14.81784742 73984
CO-66
1 32791U 08021J 09251.69438811 .00000346 00000-0 50821-4 0 04561
2 32791 097.9371 314.8144 0017126 116.8146 243.4815 14.81475191073771
RS-30
1 32953U 08025A 09253.34775993 .00000010 00000-0 00000 0 0 4011
2 32953 082.5015 203.6545 0019735 357.5593 002.5388 12.43003026 58978
TACSAT-3
1 35001U 09028A 09253.67270437 .00001381 00000-0 40524-4 0 930
2 35001 040.4553 089.3388 0023200 075.2496 285.0900 15.39125688 17528
PHARMSAT
1 35002U 09028B 09253.94039153 .00001390 00000-0 39742-4 0 917
2 35002 040.4679 087.0735 0025832 081.7510 278.6232 15.39883379 17569
HAWKSAT1
1 35003U 09028C 09253.64222498 .00002799 00000-0 72279-4 0 951
2 35003 040.4602 088.2368 0025716 083.3049 277.0667 15.40576210 17534
CP6
1 35004U 09028D 09253.64140784 .00003286 00000-0 83660-4 0 890
2 35004 040.4616 088.2352 0025812 083.0532 277.3191 15.40628992 17523
AEROCUB3
1 35005U 09028E 09253.65503492 .00003213 00000-0 82517-4 0 891
2 35005 040.4740 088.4766 0025317 081.5510 278.8156 15.40427719 17523
DRAGNSAT
1 35690U 09038B 09253.99643289 .00017891 00000-0 88753-4 0 400
2 35690 051.6422 223.8550 0002346 213.9695 146.1148 15.82088376 6728
POLLUX
1 35693U 09038E 09253.37891481 .00017017 00000-0 87041-4 0 414
2 35693 051.6396 227.2380 0003534 144.2393 215.8863 15.81465030 6599
CASTOR
1 35694U 09038F 09253.83329502 .00008665 00000-0 47705-4 0 407
2 35694 051.6404 225.0289 0003862 158.6084 201.5076 15.80695457 6667
